Regional Weather Roundup
Issued by NWS

Home | Current Version | Previous Version | Graphics & Text | Print | Product List | Glossary On
Versions: 1 2 3 4 5 6 7 8 9 10 11 12 13 14 15 16 17 18 19 20 21 22 23 24 25 26 27 28 29 30 31 32 33 34 35 36 37 38 39 40 41 42 43 44 45 46 47 48 49 50
054
ASUS44 KLIX 270301
RWRLA
LOUISIANA WEATHER ROUNDUP
NATIONAL WEATHER SERVICE NEW ORLEANS LA
1000 PM CDT TUE AUG 26 2014

NOTE: "FAIR" INDICATES FEW OR NO CLOUDS BELOW 12,000 FEET WITH NO
      SIGNIFICANT WEATHER AND/OR OBSTRUCTIONS TO VISIBILITY.
      SKY/WX - SKY CONDITION AND SIGNIFICANT WEATHER.
      TMP - AIR TEMPERATURE.    DP   - DEWPOINT TEMPERATURE.
      RH  - RELATIVE HUMIDITY.  PRES - PRESSURE.
      HX  - HEAT INDEX.         WCI  - WIND CHILL INDEX.

*  THESE STATIONS ARE NOT NWS OR FAA STATIONS AND ARE NOT UNDER
   NWS QUALITY CONTROL.

LAZ040-048-061>063-065-066-069-270400-
SOUTHEAST LOUISIANA

CITY           SKY/WX    TMP DP  RH WIND       PRES   REMARKS
N.O. AUDUBON     N/A     82  73  75 MISG        N/A
N.O. INTL ARPT MOCLDY    82  71  69 E3        29.98R
N.O. LAKEFRONT PTCLDY    83  73  72 E7        29.98R
N.O. DOWNTOWN* FAIR      82  70  65 E3        29.98S
SLIDELL        MOCLDY    78  73  84 CALM      29.98R
BATON ROUGE    PTCLDY    77  74  90 CALM      29.99R
BOOTHVILLE     PTCLDY    83  77  82 E8        29.97R
BELLE CHASSE   MOCLDY    78  72  81 E3        29.97R
BOGALUSA*      FAIR      76  70  82 CALM      30.01R
GALLIANO*      NOT AVBL
NEW ROADS*     FAIR      76  72  86 NE3       29.99R
GONZALES*      FAIR      77  77 100 CALM      29.98R
HAMMOND*       NOT AVBL
HOUMA*         PTCLDY    77  71  83 NE3       29.97R
PORT FOURCHON* PTCLDY    82  75  78 E12       29.97S

$$

LAZ041-044-053-054-270400-
SOUTHWEST LOUISIANA

CITY           SKY/WX    TMP DP  RH WIND       PRES   REMARKS
LAKE CHARLES   MOCLDY    79  75  87 NE5       29.97R
LAFAYETTE      MOCLDY    79  76  90 CALM      29.98R
PATTERSON        N/A     79  75  89 NE6       30.00R
SALT POINT       N/A     80  77  90 CALM      29.96R
NEW IBERIA     MOCLDY    80  76  87 CALM      29.98R
CHENAULT AIRPK MOCLDY    80  73  81 E3        29.98S

$$

LAZ027-028-270400-
CENTRAL LOUISIANA

CITY           SKY/WX    TMP DP  RH WIND       PRES   REMARKS
FORT POLK      CLOUDY    80  69  69 E5        30.00R
ALEXANDRIA INT MOCLDY    79  69  71 NE5       29.98R
ALEXANDRIA     MOCLDY    75  71  87 CALM      30.00R

$$

LAZ001-002-270400-
NORTHWEST LOUISIANA

CITY           SKY/WX    TMP DP  RH WIND       PRES   REMARKS
SHREVEPORT     PTCLDY    83  70  64 E6        30.00R
BARKSDALE AFB  PTCLDY    81  70  69 E3        30.01R
DTN SHREVEPORT PTCLDY    81  72  74 CALM      30.01R

$$

LAZ014-016-270400-
NORTHEAST LOUISIANA

CITY           SKY/WX    TMP DP  RH WIND       PRES   REMARKS
MONROE         PTCLDY    74  68  81 CALM      30.02R
TALLULAH       PTCLDY    71  68  90 CALM      30.02R

$$




USA.gov is the U.S. government's official web portal to all federal, state and local government web resources and services.